When you browse on this site, cookies collect data to enhance your experience and personalize the content and advertising you see.
Visit our Privacy Policy to learn more. By continuing to use the site, you agree to this use of cookies and data.
  • In Latvia
  • List of Countries
  • For 7 days
  • Water Temperature
  • Satellite Maps
  • Weather Map
  • Weather Widgets
  • user-avatar
    Login

    Hourly Weather Naberezhnyy

    Today, 15 December, Saturday

    Time Temperature Precipitation Wind Pressure Humidity
    00:00 +5°C° 0.1 mm 2 mps 766 mmHg 82%
    01:00 +4°C° 0.1 mm 2 mps 766 mmHg 83%
    02:00 +4°C° 0.1 mm 2 mps 766 mmHg 84%
    03:00 +4°C° 0 mm 1 mps 766 mmHg 86%
    04:00 +4°C° 0 mm 1 mps 766 mmHg 85%
    05:00 +4°C° 0 mm 1 mps 767 mmHg 85%
    06:00 +4°C° 0 mm 1 mps 767 mmHg 84%
    07:00 +4°C° 0 mm 1 mps 767 mmHg 83%
    08:00 +3°C° 0 mm 0 mps 767 mmHg 82%
    09:00 +5°C° 0 mm 1 mps 767 mmHg 80%
    10:00 +5°C° 0 mm 1 mps 767 mmHg 76%
    11:00 +6°C° 0 mm 1 mps 767 mmHg 73%
    12:00 +6°C° 0 mm 1 mps 767 mmHg 69%
    13:00 +7°C° 0.1 mm 1 mps 767 mmHg 70%
    14:00 +7°C° 0.1 mm 1 mps 767 mmHg 70%
    15:00 +5°C° 0 mm 2 mps 767 mmHg 70%
    16:00 +6°C° 0.2 mm 1 mps 767 mmHg 74%
    17:00 +6°C° 0.2 mm 1 mps 767 mmHg 77%
    18:00 +5°C° 0.2 mm 1 mps 767 mmHg 80%
    19:00 +4°C° 0.3 mm 2 mps 767 mmHg 81%
    20:00 +4°C° 0.3 mm 2 mps 767 mmHg 83%
    21:00 +3°C° 0.3 mm 2 mps 767 mmHg 85%
    22:00 +3°C° 0.3 mm 2 mps 768 mmHg 86%
    23:00 +2°C° 0.3 mm 2 mps 768 mmHg 87%

    Tomorrow, 16 December, Sunday

    Time Temperature Precipitation Wind Pressure Humidity
    00:00 +2°C° 0.3 mm 2 mps 768 mmHg 88%
    01:00 +1°C° 0.1 mm 3 mps 768 mmHg 89%
    02:00 0°C° 0.1 mm 3 mps 768 mmHg 89%
    03:00 0°C° 0.1 mm 3 mps 768 mmHg 89%
    04:00 0°C° 0 mm 3 mps 768 mmHg 89%
    05:00 0°C° 0 mm 3 mps 768 mmHg 88%
    06:00 -2°C° 0 mm 4 mps 768 mmHg 88%
    07:00 -2°C° 0 mm 4 mps 768 mmHg 87%
    08:00 -2°C° 0 mm 4 mps 768 mmHg 86%
    09:00 -2°C° 0 mm 5 mps 769 mmHg 84%
    10:00 -1°C° 0 mm 5 mps 768 mmHg 82%
    11:00 -1°C° 0 mm 5 mps 768 mmHg 80%
    12:00 0°C° 0 mm 5 mps 768 mmHg 78%
    13:00 -1°C° 0 mm 6 mps 768 mmHg 77%
    14:00 -1°C° 0 mm 6 mps 768 mmHg 76%
    15:00 -1°C° 0 mm 6 mps 767 mmHg 76%
    16:00 -1°C° 0 mm 6 mps 767 mmHg 77%
    17:00 -2°C° 0 mm 6 mps 767 mmHg 78%
    18:00 -2°C° 0 mm 6 mps 767 mmHg 79%
    19:00 -2°C° 0 mm 6 mps 767 mmHg 79%
    20:00 -3°C° 0 mm 6 mps 767 mmHg 79%
    21:00 -3°C° 0 mm 7 mps 767 mmHg 80%
    22:00 -3°C° 0 mm 7 mps 767 mmHg 79%
    23:00 -3°C° 0 mm 7 mps 767 mmHg 79%

    Day after tomorrow, 17 December, Monday

    Time Temperature Precipitation Wind Pressure Humidity
    00:00 -3°C° 0 mm 7 mps 766 mmHg 79%
    01:00 -3°C° 0 mm 7 mps 766 mmHg 80%
    02:00 -3°C° 0 mm 7 mps 766 mmHg 80%
    03:00 -4°C° 0 mm 7 mps 766 mmHg 81%
    04:00 -4°C° 0 mm 7 mps 766 mmHg 81%
    05:00 -4°C° 0 mm 7 mps 766 mmHg 81%
    06:00 -4°C° 0 mm 7 mps 765 mmHg 81%
    07:00 -4°C° 0 mm 7 mps 765 mmHg 80%
    08:00 -4°C° 0 mm 7 mps 765 mmHg 79%
    09:00 -4°C° 0 mm 7 mps 765 mmHg 78%
    10:00 -3°C° 0 mm 7 mps 765 mmHg 75%
    11:00 -2°C° 0 mm 7 mps 765 mmHg 72%
    12:00 -1°C° 0 mm 7 mps 765 mmHg 69%
    13:00 -1°C° 0 mm 7 mps 764 mmHg 68%
    14:00 -1°C° 0 mm 7 mps 764 mmHg 68%
    15:00 -1°C° 0 mm 7 mps 764 mmHg 68%
    16:00 -1°C° 0 mm 7 mps 764 mmHg 70%
    17:00 -2°C° 0 mm 7 mps 764 mmHg 72%
    18:00 -3°C° 0 mm 6 mps 764 mmHg 75%
    19:00 -3°C° 0 mm 6 mps 764 mmHg 76%
    20:00 -3°C° 0 mm 6 mps 764 mmHg 77%
    21:00 -3°C° 0 mm 6 mps 764 mmHg 78%
    22:00 -3°C° 0 mm 6 mps 764 mmHg 78%
    23:00 -3°C° 0 mm 6 mps 764 mmHg 78%

    18 December, Tuesday

    Time Temperature Precipitation Wind Pressure Humidity
    00:00 -3°C° 0 mm 6 mps 764 mmHg 78%
    01:00 -3°C° 0 mm 6 mps 764 mmHg 78%
    02:00 -3°C° 0 mm 6 mps 764 mmHg 78%
    03:00 -3°C° 0 mm 6 mps 764 mmHg 79%
    04:00 -2°C° 0 mm 5 mps 764 mmHg 79%
    05:00 -2°C° 0 mm 5 mps 764 mmHg 80%
    06:00 -2°C° 0 mm 5 mps 764 mmHg 81%
    07:00 -2°C° 0 mm 5 mps 764 mmHg 80%
    08:00 -2°C° 0 mm 5 mps 764 mmHg 80%
    09:00 -1°C° 0 mm 5 mps 764 mmHg 80%
    10:00 0°C° 0 mm 5 mps 764 mmHg 76%
    11:00 +1°C° 0 mm 5 mps 764 mmHg 73%
    12:00 +2°C° 0 mm 5 mps 764 mmHg 70%
    13:00 +2°C° 0 mm 5 mps 764 mmHg 71%
    14:00 +2°C° 0 mm 5 mps 764 mmHg 71%
    15:00 +2°C° 0 mm 5 mps 764 mmHg 72%
    16:00 +1°C° 0 mm 5 mps 764 mmHg 76%
    17:00 0°C° 0 mm 5 mps 765 mmHg 80%
    18:00 -1°C° 0 mm 5 mps 765 mmHg 84%
    19:00 -1°C° 0 mm 5 mps 765 mmHg 86%
    20:00 -1°C° 0 mm 5 mps 765 mmHg 87%
    21:00 -1°C° 0 mm 5 mps 765 mmHg 88%
    22:00 -1°C° 0 mm 4 mps 765 mmHg 89%
    23:00 -1°C° 0 mm 4 mps 765 mmHg 89%

    19 December, Wednesday

    Time Temperature Precipitation Wind Pressure Humidity
    00:00 -1°C° 0 mm 4 mps 765 mmHg 90%
    01:00 -1°C° 0 mm 4 mps 765 mmHg 90%
    02:00 -1°C° 0 mm 4 mps 765 mmHg 90%
    03:00 -1°C° 0 mm 4 mps 765 mmHg 90%
    04:00 -1°C° 0 mm 4 mps 765 mmHg 90%
    05:00 -1°C° 0 mm 4 mps 765 mmHg 90%
    06:00 -1°C° 0 mm 5 mps 765 mmHg 90%
    07:00 -1°C° 0 mm 5 mps 765 mmHg 89%
    08:00 0°C° 0 mm 5 mps 765 mmHg 88%
    09:00 0°C° 0 mm 5 mps 765 mmHg 87%
    10:00 +1°C° 0 mm 5 mps 765 mmHg 83%
    11:00 +2°C° 0 mm 6 mps 764 mmHg 79%
    12:00 +3°C° 0 mm 6 mps 764 mmHg 75%
    13:00 +3°C° 0 mm 6 mps 764 mmHg 74%
    14:00 +4°C° 0 mm 6 mps 764 mmHg 74%
    15:00 +4°C° 0 mm 6 mps 763 mmHg 74%
    16:00 +3°C° 0 mm 6 mps 763 mmHg 77%
    17:00 +2°C° 0 mm 6 mps 763 mmHg 79%
    18:00 +2°C° 0 mm 6 mps 763 mmHg 82%
    19:00 +1°C° 0 mm 6 mps 763 mmHg 82%
    20:00 0°C° 0 mm 7 mps 763 mmHg 82%
    21:00 0°C° 0 mm 7 mps 763 mmHg 82%
    22:00 0°C° 0 mm 7 mps 763 mmHg 82%
    23:00 0°C° 0 mm 7 mps 763 mmHg 82%

    20 December, Thursday

    Time Temperature Precipitation Wind Pressure Humidity
    00:00 0°C° 0 mm 7 mps 763 mmHg 81%
    01:00 +1°C° 0 mm 6 mps 763 mmHg 81%
    02:00 +1°C° 0 mm 6 mps 763 mmHg 82%
    03:00 +1°C° 0 mm 6 mps 763 mmHg 82%
    04:00 +2°C° 0 mm 6 mps 763 mmHg 82%
    05:00 +2°C° 0 mm 6 mps 763 mmHg 82%
    06:00 +2°C° 0 mm 6 mps 763 mmHg 82%
    07:00 +2°C° 0 mm 6 mps 763 mmHg 81%
    08:00 +2°C° 0 mm 6 mps 764 mmHg 81%
    09:00 +2°C° 0 mm 6 mps 764 mmHg 81%
    10:00 +2°C° 0 mm 6 mps 764 mmHg 79%
    11:00 +3°C° 0 mm 6 mps 764 mmHg 77%
    12:00 +3°C° 0 mm 6 mps 764 mmHg 75%
    13:00 +3°C° 0 mm 6 mps 764 mmHg 75%
    14:00 +3°C° 0 mm 6 mps 764 mmHg 75%
    15:00 +3°C° 0 mm 6 mps 764 mmHg 75%
    16:00 +3°C° 0 mm 6 mps 764 mmHg 77%
    17:00 +2°C° 0 mm 6 mps 765 mmHg 79%
    18:00 +2°C° 0 mm 6 mps 765 mmHg 81%
    19:00 +2°C° 0 mm 6 mps 765 mmHg 82%
    20:00 +2°C° 0 mm 6 mps 765 mmHg 82%
    21:00 +1°C° 0 mm 6 mps 766 mmHg 83%
    22:00 +1°C° 0 mm 6 mps 766 mmHg 83%
    23:00 +1°C° 0 mm 6 mps 766 mmHg 84%
    Show more